Wind_Speed
10 11 10 10 11 10 10 9 10 10 10 9 8 6 5 3 2 2 6 6 8 7 7 2 3 2 6 6 6 2 4 3 5 7 5 15 5 16 5 17 6 4 21 27 25
11 11 11 11 10 10 9 9 10 10 10 8 7 4 4 3 1 1 7 8 15 11 10 7 5 6 5 4 4 4 3 2 4 6 8 15 14 11 8 10 6 18 22 25 23
13 12 12 10 10 9 9 9 11 11 10 7 5 3 2 1 4 4 9 8 17 12 11 10 4 6 5 4 6 3 2 5 2 11 22 17 10 3 19 2 9 30 30 27 23
15 14 12 10 10 9 9 9 11 10 8 6 3 1 1 3 3 5 8 8 11 11 6 2 2 4 3 3 4 3 6 4 3 17 18 15 14 8 6 3 15 36 31 28 24
16 15 13 11 11 9 8 9 10 9 7 4 0 3 3 2 3 4 10 8 9 8 4 4 10 4 3 4 2 6 4 7 13 20 22 19 10 8 2 16 30 30 28 27 24
17 16 15 12 11 9 8 8 9 8 6 3 2 5 5 3 2 3 10 9 8 8 4 1 0 2 3 3 4 8 8 11 9 16 17 10 8 8 15 26 31 30 28 27 26
18 18 16 13 11 9 8 8 8 7 4 1 3 6 4 4 2 4 6 9 10 6 5 2 2 1 1 1 7 5 2 3 6 6 3 16 2 2 26 27 31 29 26 26 25
19 18 17 15 11 8 7 8 6 4 2 2 5 6 2 3 3 3 7 8 5 6 9 10 8 6 6 4 3 4 4 2 2 6 9 3 4 7 27 31 26 29 26 25 25
19 18 17 15 12 8 7 6 3 2 1 3 5 3 2 3 5 5 5 7 3 6 8 9 5 3 6 5 3 3 2 2 3 8 5 2 1 10 25 26 24 25 26 25 25
20 19 17 15 11 8 6 4 4 4 4 5 2 1 1 3 4 6 3 4 3 4 2 2 1 3 3 3 5 4 2 2 5 6 4 5 3 11 23 21 23 27 27 26 26
22 19 17 15 10 7 8 3 2 1 1 3 3 4 6 6 5 6 4 3 1 1 3 4 4 4 7 6 5 4 3 3 4 7 4 6 5 12 21 19 18 22 26 29 30
25 20 17 14 9 4 8 6 10 6 5 4 7 11 11 7 1 8 4 4 3 2 2 5 3 3 6 4 6 4 3 5 2 5 4 5 6 13 20 22 25 24 28 30 29
25 21 16 12 8 2 6 5 9 7 1 6 8 8 4 8 5 11 8 5 3 1 3 4 4 1 4 4 5 2 6 4 3 5 3 5 2 9 12 15 20 23 28 31 31
25 22 17 9 1 2 8 4 6 1 5 6 4 6 8 7 3 8 12 5 2 4 5 4 4 2 5 2 3 3 2 5 8 4 3 2 3 3 10 15 18 24 27 30 30
24 21 15 9 5 4 3 3 3 2 2 3 4 4 11 10 3 5 14 11 5 3 4 5 5 3 4 4 5 3 4 4 4 5 4 4 3 5 3 11 15 22 32 31 26
24 22 16 7 7 5 4 1 6 6 5 1 5 5 5 2 3 5 5 7 3 4 2 3 4 1 1 3 4 5 6 8 5 3 2 3 4 3 3 5 7 15 27 27 24
24 19 13 7 3 8 7 6 5 4 4 2 3 4 3 4 1 2 3 3 5 4 2 4 4 4 1 3 4 7 6 3 3 3 5 5 4 1 9 9 13 15 22 25 18
25 13 7 4 6 8 7 5 4 3 5 4 3 3 7 5 3 2 4 2 0 4 4 4 3 2 4 3 5 3 6 6 5 4 3 4 4 6 5 11 13 18 26 29 21
20 8 3 4 9 11 8 3 7 5 4 6 3 3 2 2 5 3 6 6 6 7 5 4 3 3 4 2 3 3 2 4 7 3 3 2 2 3 10 10 12 15 18 21 20
15 7 9 2 9 12 4 5 3 4 4 4 1 1 5 4 5 5 6 3 5 2 3 6 4 2 2 3 8 3 5 3 3 4 2 3 3 4 8 8 8 10 8 7 11
9 4 7 13 7 3 4 5 5 7 5 1 1 4 3 3 6 2 7 1 1 3 6 4 3 3 4 6 1 4 3 7 6 3 5 3 2 5 2 3 7 13 17 15 8
5 3 1 4 4 2 3 5 3 5 5 5 3 7 5 4 3 5 6 2 1 5 4 1 5 4 2 2 2 2 3 4 5 3 1 3 2 3 5 8 15 17 23 24 26
6 2 5 3 3 3 4 4 5 5 7 4 6 7 3 5 3 3 3 2 3 2 7 6 3 4 6 6 4 5 3 4 4 3 2 5 4 3 9 13 16 24 23 22 19
6 3 4 3 4 2 3 5 4 8 9 8 5 5 4 2 2 6 4 5 4 5 9 8 4 5 7 5 3 2 4 3 4 3 6 4 8 4 4 7 15 20 18 17 15
7 2 3 3 3 3 1 2 4 4 4 7 4 8 7 4 3 2 3 4 5 2 5 5 4 4 4 3 2 2 2 5 2 4 2 7 5 6 5 7 11 13 13 12 13
5 4 5 3 8 3 3 3 3 6 2 5 6 9 7 9 9 13 8 3 4 6 4 4 2 3 3 5 4 3 7 5 5 5 7 14 6 5 12 13 11 10 9 11 13
7 5 4 5 6 2 3 5 6 6 5 5 4 3 4 1 15 15 11 12 9 5 3 4 6 3 2 4 4 3 5 2 3 4 8 10 5 9 5 8 7 5 6 10 14
Wind_Direction
343 336 333 331 331 329 326 324 323 321 319 320 320 319 305 306 314 28 79 91 93 115 154 173 356 111 78 70 63 67 68 165 160 162 147 140 119 150 129 134 119 30 149 154 157
348 339 335 332 332 329 327 327 326 324 320 319 318 316 295 310 292 58 125 102 110 128 168 140 98 132 63 36 38 64 84 204 181 158 156 148 128 148 123 146 82 111 144 154 155
355 345 339 334 331 328 325 328 328 325 320 318 317 310 283 352 109 90 159 138 140 143 135 180 81 105 79 62 18 40 64 352 12 143 143 141 123 125 140 214 185 147 157 159 161
359 352 345 339 332 329 325 328 329 328 322 319 318 238 195 112 106 111 152 164 169 172 175 59 18 97 80 57 32 55 337 276 138 140 140 147 143 126 133 239 179 157 155 160 167
359 355 351 344 338 331 323 326 329 329 324 321 360 165 157 138 88 109 153 172 172 193 192 9 52 32 85 70 73 18 337 6 133 144 142 145 147 152 137 150 156 156 161 167 172
357 354 353 349 343 333 322 322 326 327 320 311 144 164 148 92 46 85 164 179 189 199 208 11 41 25 67 77 68 184 234 318 102 151 151 129 134 113 152 157 160 166 173 177 177
354 351 352 351 348 337 323 318 322 320 310 253 158 161 160 86 120 105 175 200 205 220 245 291 297 332 212 100 135 164 83 149 67 107 109 118 61 110 157 166 164 177 179 182 188
351 348 348 349 350 343 328 321 319 314 295 179 158 153 144 142 161 136 169 179 201 263 295 283 245 249 184 127 93 111 73 117 275 107 154 114 237 136 159 160 170 182 190 190 195
347 345 344 345 349 356 347 351 17 51 105 157 147 129 156 206 209 202 183 170 190 295 300 285 227 198 161 125 34 8 186 179 154 189 139 103 191 159 168 165 174 187 193 198 201
345 343 341 340 349 8 4 8 48 70 117 132 139 98 150 351 268 221 211 200 259 311 132 144 118 75 57 104 207 210 201 197 187 201 155 159 188 162 176 178 179 193 203 205 209
347 341 338 336 346 9 24 86 30 69 260 200 150 304 296 316 287 206 234 234 175 48 53 33 65 212 222 209 200 168 175 217 220 166 131 181 152 180 183 186 188 193 201 212 217
349 340 337 333 335 23 61 76 53 343 313 253 257 269 291 289 226 206 201 170 101 114 17 16 242 220 268 219 206 255 177 247 314 139 129 168 200 185 190 199 194 194 202 213 216
348 341 336 333 331 102 94 67 360 356 44 281 243 257 250 192 198 222 211 175 125 137 173 178 226 290 230 81 117 107 162 166 162 109 57 110 313 188 207 200 206 210 211 215 219
346 341 337 333 319 100 130 32 343 115 59 280 220 218 187 165 245 217 195 184 89 193 173 226 279 144 126 78 127 104 139 110 125 98 183 69 263 255 206 202 201 208 211 217 220
342 338 334 319 274 164 160 14 116 104 12 243 196 187 175 171 159 193 191 191 167 189 97 256 349 40 131 172 166 179 66 63 96 96 93 358 80 306 156 208 211 200 211 214 217
339 332 322 303 260 205 208 41 138 43 255 320 176 161 115 211 181 134 143 163 121 121 14 256 303 360 114 69 67 137 62 40 58 88 48 338 138 304 347 299 260 207 201 210 213
337 327 312 286 195 178 186 155 49 146 318 322 229 147 128 157 168 124 112 84 154 101 322 354 318 311 112 83 37 70 60 359 355 12 205 306 73 44 318 318 244 179 165 182 193
342 334 317 262 201 195 173 63 173 240 269 313 15 29 168 156 200 112 91 138 62 95 99 138 336 356 349 104 162 62 143 151 209 190 218 357 4 311 346 36 74 124 145 154 174
351 1 63 168 191 185 168 94 207 205 294 329 328 132 222 282 167 118 171 194 192 182 135 139 266 312 54 61 99 168 83 166 106 4 74 251 118 91 24 43 59 89 119 143 171
354 70 46 111 167 169 88 201 209 222 295 23 305 130 175 202 165 129 173 193 180 180 144 198 100 360 335 86 39 114 145 68 16 131 133 20 66 344 356 12 38 47 88 142 187
3 80 47 108 121 141 145 224 253 236 312 348 305 322 240 208 146 133 198 229 169 56 91 128 97 270 46 22 230 1 39 53 109 102 144 130 262 1 41 31 77 79 92 98 127
15 53 97 168 53 32 154 196 219 270 312 263 195 209 237 150 123 146 189 204 357 154 90 131 120 81 125 321 269 99 108 127 119 207 72 125 265 358 44 40 80 76 94 92 90
10 39 40 207 88 329 284 265 233 231 232 227 225 192 177 180 99 155 150 31 171 118 160 182 24 72 356 352 5 43 37 109 105 100 190 128 222 94 76 68 79 86 93 87 86
360 18 40 100 80 124 325 264 263 270 244 209 245 146 125 122 82 181 135 36 61 79 86 94 85 143 181 183 173 7 357 85 108 109 165 190 150 150 90 78 74 82 78 75 65
17 30 16 335 323 334 334 281 307 314 252 214 246 192 156 134 89 102 112 108 50 67 50 89 97 86 70 26 122 91 349 338 84 141 138 169 122 170 154 121 86 79 63 46 27
29 12 346 300 308 317 17 351 292 303 220 284 243 144 156 167 177 180 146 145 157 35 68 20 141 122 56 6 24 74 12 50 60 110 69 117 108 148 130 121 100 80 56 27 0
20 357 343 344 344 45 323 302 281 326 309 258 241 120 76 296 119 113 88 93 104 106 86 75 128 97 192 349 34 9 341 359 65 33 144 149 185 144 144 141 132 101 40 360 341
Height
1514 1513 1511 1509 1508 1507 1506 1504 1503 1502 1501 1500 1499 1499 1498 1499 1500 1501 1503 1504 1502 1501 1501 1502 1503 1503 1503 1503 1504 1505 1515 1522 1516 1518 1517 1517 1522 1527 1527 1530 1532 1534 1535 1539 1544
1513 1512 1510 1509 1508 1506 1505 1503 1502 1501 1500 1499 1498 1497 1497 1498 1499 1501 1503 1504 1501 1499 1502 1502 1503 1502 1503 1504 1505 1507 1516 1512 1507 1509 1511 1517 1520 1525 1528 1532 1535 1536 1541 1544 1546
1513 1511 1509 1508 1507 1505 1504 1502 1501 1500 1498 1498 1497 1497 1496 1498 1499 1501 1501 1503 1500 1501 1504 1505 1505 1504 1505 1506 1508 1510 1514 1508 1505 1506 1511 1517 1522 1526 1529 1533 1532 1534 1540 1545 1548
1512 1510 1508 1507 1506 1504 1503 1501 1500 1499 1497 1496 1496 1496 1496 1498 1504 1501 1500 1503 1504 1505 1506 1505 1503 1504 1506 1510 1512 1512 1510 1508 1506 1508 1513 1519 1524 1529 1530 1530 1530 1536 1541 1546 1549
1512 1510 1507 1506 1505 1503 1502 1501 1500 1498 1497 1495 1496 1496 1497 1499 1500 1500 1502 1504 1504 1505 1507 1503 1500 1501 1506 1511 1512 1512 1510 1508 1507 1511 1515 1521 1525 1528 1533 1532 1536 1541 1545 1547 1551
1512 1509 1507 1504 1503 1502 1501 1500 1499 1497 1497 1495 1496 1496 1497 1500 1500 1500 1502 1504 1505 1506 1508 1505 1505 1503 1505 1512 1513 1514 1513 1511 1511 1514 1518 1523 1528 1529 1537 1536 1539 1543 1546 1549 1552
1511 1508 1506 1503 1502 1500 1499 1498 1498 1497 1496 1495 1496 1497 1497 1500 1500 1501 1503 1504 1505 1506 1507 1508 1506 1507 1508 1511 1515 1515 1517 1514 1514 1517 1521 1523 1530 1531 1534 1538 1541 1545 1547 1551 1554
1511 1507 1504 1502 1500 1499 1498 1497 1496 1496 1495 1496 1496 1497 1498 1499 1500 1502 1503 1505 1505 1506 1506 1509 1510 1511 1510 1512 1515 1517 1521 1528 1517 1517 1523 1524 1539 1531 1535 1537 1543 1546 1549 1552 1555
1510 1506 1503 1501 1499 1498 1497 1496 1495 1495 1496 1496 1498 1497 1499 1499 1500 1502 1504 1505 1506 1506 1506 1506 1509 1509 1510 1515 1524 1523 1533 1528 1524 1518 1520 1525 1535 1532 1536 1539 1543 1545 1548 1551 1554
1509 1505 1502 1500 1498 1497 1496 1496 1496 1495 1496 1497 1498 1501 1499 1500 1499 1500 1502 1503 1504 1505 1505 1505 1505 1510 1514 1521 1541 1530 1530 1526 1527 1522 1521 1527 1530 1531 1535 1539 1541 1544 1547 1550 1553
1508 1504 1501 1498 1497 1497 1497 1496 1499 1499 1496 1496 1498 1498 1497 1498 1498 1499 1501 1502 1503 1504 1507 1507 1514 1521 1514 1513 1511 1512 1520 1522 1517 1515 1521 1525 1529 1530 1532 1537 1542 1544 1546 1549 1551
1506 1503 1500 1498 1497 1497 1497 1497 1499 1501 1497 1494 1495 1495 1495 1496 1497 1498 1500 1503 1503 1507 1507 1512 1515 1505 1504 1506 1510 1513 1522 1524 1514 1514 1520 1527 1529 1528 1529 1531 1536 1541 1543 1546 1550
1504 1501 1499 1497 1496 1497 1497 1498 1498 1498 1498 1493 1493 1493 1494 1496 1496 1497 1499 1501 1503 1507 1509 1515 1506 1504 1502 1506 1512 1513 1521 1518 1520 1519 1522 1527 1535 1531 1529 1531 1536 1539 1541 1545 1547
1503 1499 1497 1496 1499 1497 1498 1499 1498 1497 1512 1498 1491 1490 1492 1494 1496 1495 1497 1500 1503 1507 1509 1510 1502 1503 1504 1508 1511 1516 1509 1512 1520 1528 1545 1527 1557 1535 1529 1529 1531 1534 1537 1541 1544
1501 1498 1496 1495 1495 1497 1499 1498 1498 1499 1537 1491 1488 1487 1488 1493 1493 1493 1495 1498 1502 1504 1507 1510 1504 1505 1508 1508 1509 1514 1509 1514 1519 1535 1536 1538 1551 1542 1529 1533 1527 1529 1532 1537 1541
1499 1495 1493 1493 1493 1496 1497 1498 1500 1520 1531 1491 1485 1486 1489 1490 1491 1492 1494 1497 1500 1503 1504 1505 1502 1502 1502 1504 1504 1508 1515 1526 1536 1544 1559 1550 1555 1556 1547 1540 1531 1528 1531 1535 1541
1496 1492 1489 1489 1492 1493 1496 1498 1520 1533 1496 1493 1488 1486 1489 1493 1493 1492 1495 1500 1509 1520 1517 1511 1506 1502 1501 1506 1508 1513 1531 1561 1560 1565 1566 1554 1556 1544 1539 1531 1523 1523 1528 1536 1543
1492 1488 1486 1487 1489 1492 1495 1500 1522 1509 1506 1490 1489 1490 1493 1491 1493 1495 1500 1509 1503 1509 1527 1528 1530 1506 1502 1506 1515 1522 1528 1557 1564 1575 1564 1549 1564 1553 1536 1531 1526 1526 1529 1535 1542
1489 1485 1485 1485 1487 1490 1493 1517 1515 1508 1497 1495 1492 1495 1495 1491 1493 1495 1501 1508 1503 1503 1517 1525 1521 1505 1503 1504 1509 1522 1535 1531 1562 1567 1565 1556 1546 1541 1540 1537 1536 1535 1536 1538 1543
1488 1487 1486 1486 1487 1490 1496 1509 1504 1499 1495 1494 1498 1493 1502 1495 1498 1500 1504 1499 1500 1499 1499 1512 1525 1510 1507 1508 1512 1513 1525 1541 1555 1567 1572 1562 1558 1559 1548 1547 1543 1542 1542 1543 1545
1489 1488 1490 1489 1491 1492 1506 1507 1499 1494 1495 1495 1496 1497 1494 1493 1498 1502 1505 1497 1495 1499 1499 1508 1518 1518 1513 1524 1525 1526 1530 1546 1554 1563 1570 1580 1568 1556 1554 1550 1547 1546 1546 1546 1548
1490 1493 1493 1492 1494 1500 1503 1499 1495 1492 1492 1492 1492 1494 1494 1494 1497 1499 1500 1497 1495 1496 1504 1508 1523 1537 1527 1521 1521 1521 1529 1538 1553 1558 1569 1567 1572 1556 1554 1552 1549 1551 1551 1553 1553
1494 1494 1494 1494 1504 1504 1498 1495 1492 1491 1491 1489 1489 1488 1490 1493 1500 1496 1496 1496 1495 1496 1501 1504 1529 1547 1541 1531 1523 1528 1528 1538 1545 1551 1560 1566 1573 1557 1556 1554 1554 1553 1554 1554 1555
1498 1499 1495 1495 1498 1499 1499 1495 1492 1485 1485 1483 1483 1483 1489 1493 1496 1500 1497 1495 1495 1496 1498 1499 1532 1532 1547 1538 1534 1531 1531 1532 1539 1552 1562 1562 1562 1559 1557 1556 1556 1555 1556 1557 1556
1501 1504 1505 1505 1500 1501 1500 1495 1493 1490 1482 1480 1480 1478 1483 1494 1497 1498 1494 1497 1499 1499 1501 1506 1532 1531 1533 1531 1529 1533 1533 1531 1530 1541 1543 1554 1558 1559 1557 1556 1557 1556 1556 1556 1556
1506 1506 1505 1502 1501 1499 1499 1497 1495 1489 1484 1480 1481 1470 1476 1485 1481 1493 1492 1495 1496 1501 1506 1512 1534 1529 1536 1533 1530 1537 1537 1536 1538 1545 1549 1550 1559 1556 1557 1558 1558 1558 1559 1560 1560
1508 1507 1507 1505 1502 1502 1503 1498 1492 1489 1481 1478 1473 1468 1476 1479 1476 1484 1487 1489 1493 1501 1512 1519 1533 1540 1542 1540 1534 1545 1545 1542 1543 1542 1542 1551 1552 1555 1558 1559 1559 1559 1559 1560 1560